Simultaneous Nadir Overpasses (SNOs) Predictions

Prediction of SNOs between LANDSAT-8 and NOAA-19 Satellite Orbit:

Table of predicted SNOs for the next 14.0 days since TLE Epoch: 12/17/2016
Index Date (LANDSAT-8) Time (LANDSAT-8) Lat,Lon (LANDSAT-8) SZA (LANDSAT-8 ) Date (NOAA-19) Time (NOAA-19) Lat,Lon (NOAA-19) SZA (NOAA-19 ) Distance(km) Time Diff (sec)
1 12/17/2016 12:18:20 -75.48,-177.81 81.11 12/17/2016 12:17:27 -75.51,-177.81 81.08 3.51 53
2 12/17/2016 13:07:47 75.41, -10.36 98.82 12/17/2016 13:08:25 75.41, -10.22 98.83 4.00 38
3 12/19/2016 17:52:02 75.49, -81.20 98.95 12/19/2016 17:51:22 75.51, -81.23 98.96 2.02 40
4 12/19/2016 18:41:31 -75.42, 86.22 81.14 12/19/2016 18:42:22 -75.41, 86.34 81.13 3.30 51
5 12/21/2016 23:25:46 -75.50, 15.38 81.05 12/21/2016 23:25:19 -75.49, 15.40 81.06 1.11 27
6 12/22/2016 00:15:13 75.42,-177.19 98.88 12/22/2016 00:16:17 75.44,-177.18 98.90 2.04 64
7 12/24/2016 04:59:28 75.50, 111.95 98.92 12/24/2016 04:59:13 75.51, 111.94 98.93 0.84 15
8 12/24/2016 05:49:00 -75.28, -81.02 81.32 12/24/2016 05:50:11 -75.26, -80.04 81.30 27.80 71
9 12/26/2016 10:33:12 -75.50,-151.47 81.16 12/26/2016 10:33:11 -75.49,-151.45 81.17 1.52 1
10 12/28/2016 15:17:24 -75.72, 138.09 81.04 12/28/2016 15:16:13 -75.81, 136.80 80.98 36.56 71
11 12/28/2016 16:06:54 75.49, -54.93 98.72 12/28/2016 16:07:04 75.52, -54.94 98.75 2.68 10
12 12/30/2016 20:51:09 75.56,-125.81 98.64 12/30/2016 20:49:59 75.54,-125.70 98.63 3.49 70
13 12/30/2016 21:40:38 -75.49,
